Flag for U.S.A. Weather past 2 weeks in Aurora, Illinois, U.S.A.

Now
63 °F

Sunny.


Feels Like: 63 °F
Forecast: 57 / 83 °F
Wind: No wind

Location: Dupage Airport

Current Time: May 27, 2015 at 9:41:53 PM

Latest Report: May 27, 2015 at 8:52 PM


Visibility: 10 mi

Pressure: 30.08 "Hg

Humidity: 78%

Dew point: 56 °F

Location of AuroraLocation

Historic Weather in Aurora — Graph

°F

Aurora temperature yesterday

Maximum temperature yesterday: 75 °F (at 3:52 PM)
Minimum temperature yesterday: 66 °F (at 3:52 AM)
Average temperature yesterday: 69 °F

Past Weeks' High & Low Weather Summary

 TemperatureHumidityPressure
High81 °F (May 17, 5:52 PM)97% (May 16, 4:52 AM)30.49 "Hg (May 16, 4:52 AM)
Low36 °F (May 13, 4:52 AM)25% (May 23, 3:52 PM)29.74 "Hg (May 26, 3:52 PM)
Average61 °F69%30.08 "Hg
* Reported May 12 7:52 PM — May 27 7:52 PM, Aurora, Weather by CustomWeather, © 2015

Note: Actual official high and low records may vary slightly from our data, if they occured in-between our weather recording intervals... More about our weather records

Advertising

Aurora weather history for previous 24 hours

 ConditionsComfort  
Time TempWeatherWind HumidityBarometerVisibility
7:52 PM
Wed, May 27
71 °FSunny.3 mph57%30.05 "Hg10 mi
6:52 PM73 °FSunny.7 mph53%30.04 "Hg10 mi
5:52 PM74 °FSunny.10 mph53%30.03 "Hg10 mi
4:52 PM73 °FSunny.9 mph57%30.02 "Hg10 mi
3:52 PM72 °FScattered clouds.15 mph57%30.01 "Hg10 mi
2:52 PM68 °FLight rain. Overcast.18 mph70%30.01 "Hg10 mi
1:52 PM74 °FBroken clouds.15 mph57%29.98 "Hg10 mi
12:52 PM72 °FBroken clouds.20 mph61%29.98 "Hg10 mi
11:52 AM71 °FOvercast.15 mph63%29.97 "Hg10 mi
11:01 AM69 °FPartly sunny.13 mph70%29.97 "Hg10 mi
9:52 AM69 °FPartly sunny.17 mph70%29.94 "Hg10 mi
9:03 AM68 °FScattered clouds.15 mph76%29.94 "Hg10 mi
8:52 AM66 °FBroken clouds.15 mph78%29.93 "Hg10 mi
8:02 AM66 °FScattered clouds.18 mph81%29.94 "Hg10 mi
7:52 AM65 °FPartly sunny.14 mph85%29.93 "Hg10 mi
6:52 AM63 °FPartly sunny.12 mph90%29.91 "Hg10 mi
5:52 AM63 °FClear.13 mph87%29.89 "Hg10 mi
4:52 AM64 °FClear.16 mph87%29.87 "Hg10 mi
3:52 AM64 °FClear.12 mph90%29.85 "Hg10 mi
2:52 AM65 °FPassing clouds.15 mph87%29.83 "Hg10 mi
1:52 AM66 °FPassing clouds.14 mph84%29.83 "Hg10 mi
1:02 AM67 °FMostly cloudy.10 mph85%29.84 "Hg10 mi
12:52 AM67 °FOvercast.10 mph85%29.83 "Hg10 mi
11:52 PM
Tue, May 26
67 °FPassing clouds.13 mph81%29.82 "Hg10 mi
10:52 PM67 °FLight rain. Overcast.10 mph81%29.83 "Hg10 mi
9:52 PM66 °FPassing clouds.6 mph81%29.83 "Hg10 mi
Weather by CustomWeather, © 2015

See weather overviewHow to use our weather pages